Weather History for KRKR - January, 2013

Change the Weather History Date:

Wednesday, January 30, 2013

  Actual Average (KFSM) Record (KFSM)
Temperature  
Mean Temperature 42 °F 41 °F  
Max Temperature 51 °F 52 °F 77 °F (1917)
Min Temperature 32 °F 30 °F 0 °F (1966)
Degree Days  
Heating Degree Days 24 24  
Month to date heating degree days 769  
Since 1 July heating degree days 2068  
Moisture  
Dew Point 35 °F    
Average Humidity 78    
Maximum Humidity 100    
Minimum Humidity 57    
Precipitation  
Precipitation 0.00 in 0.09 in 2.76 in (1982)
Month to date precipitation 2.71  
Year to date precipitation 2.71  
Sea Level Pressure  
Sea Level Pressure 29.87 in    
Wind  
Wind Speed 8 mph (WNW)    
Max Wind Speed 20 mph    
Max Gust Speed 32 mph    
Visibility 10 miles    
Events      
T = Trace of Precipitation, MM = Missing Value Source: NWS Daily Summary

Daily Weather History Graph

Daily Weather History Graph

Search for Another Location

Airport or City:

Trip Planner

Search our weather history database for the weather conditions in past years. The results will help you decide how hot, cold, wet, or windy it might be!

Date:

Astronomy

Jan. 30, 2013 Rise Set
Actual Time 7:18 AM CST 5:45 PM CST
Civil Twilight 6:51 AM CST 6:12 PM CST
Nautical Twilight 6:21 AM CST 6:42 PM CST
Astronomical Twilight 5:51 AM CST 7:12 PM CST
Moon 9:33 PM CST (1/30) 8:57 AM CST (1/30)
Length of Visible Light 11h 20m
Length of Day
10h 26m
Waning Gibbous, 87% of the Moon is Illuminated
Jan 30
Waning Gibbous
Feb 3
Last Quarter
Feb 10
New
Feb 17
First Quarter
Feb 25
Full

Hourly Weather History & Observations

Time (CST) Temp. Windchill Dew Point Humidity Pressure Visibility Wind Dir Wind Speed Gust Speed Precip Events Conditions
12:15 AM 51.8 °F - 51.8 °F 100% 29.57 in 10.0 mi Calm Calm - N/A   Clear
12:35 AM 50.0 °F - 50.0 °F 100% 29.56 in 7.0 mi Calm Calm - N/A   Clear
12:55 AM 48.2 °F - 48.2 °F 100% 29.57 in 7.0 mi Calm Calm - N/A   Clear
1:15 AM 50.0 °F - 50.0 °F 100% 29.57 in 10.0 mi Calm Calm - N/A   Clear
1:35 AM 48.2 °F - 48.2 °F 100% 29.59 in 10.0 mi Calm Calm - N/A   Clear
1:55 AM 48.2 °F - 48.2 °F 100% 29.59 in 10.0 mi West 5.8 mph - N/A   Clear
2:15 AM 51.8 °F - 50.0 °F 94% 29.60 in 10.0 mi WSW 5.8 mph - N/A   Mostly Cloudy
2:35 AM 51.8 °F - 50.0 °F 94% 29.61 in 10.0 mi WSW 5.8 mph - N/A   Overcast
2:55 AM 51.8 °F - 50.0 °F 94% 29.60 in 7.0 mi WNW 13.8 mph 20.7 mph N/A   Overcast
3:15 AM 44.6 °F 38.1 °F 44.6 °F 100% 29.60 in 10.0 mi WNW 13.8 mph 24.2 mph N/A   Overcast
3:35 AM 44.6 °F 39.2 °F 42.8 °F 93% 29.62 in 7.0 mi WNW 10.4 mph 18.4 mph N/A   Mostly Cloudy
3:55 AM 44.6 °F 38.4 °F 41.0 °F 87% 29.63 in 7.0 mi West 12.7 mph 20.7 mph N/A   Overcast
4:15 AM 44.6 °F 38.1 °F 41.0 °F 87% 29.63 in 7.0 mi WNW 13.8 mph 18.4 mph N/A   Overcast
4:35 AM 44.6 °F 38.1 °F 41.0 °F 87% 29.65 in 7.0 mi WNW 13.8 mph 21.9 mph N/A   Overcast
4:55 AM 42.8 °F 36.6 °F 37.4 °F 81% 29.66 in 10.0 mi West 11.5 mph 23.0 mph N/A   Overcast
5:15 AM 42.8 °F 35.8 °F 37.4 °F 81% 29.68 in 10.0 mi West 13.8 mph 19.6 mph N/A   Mostly Cloudy
5:35 AM 42.8 °F 38.0 °F 37.4 °F 81% 29.68 in 10.0 mi WSW 8.1 mph - N/A   Mostly Cloudy
5:55 AM 42.8 °F 36.6 °F 37.4 °F 81% 29.70 in 10.0 mi West 11.5 mph 24.2 mph N/A   Overcast
6:15 AM 42.8 °F 37.0 °F 37.4 °F 81% 29.70 in 10.0 mi West 10.4 mph 17.3 mph N/A   Overcast
6:35 AM 42.8 °F 37.0 °F 35.6 °F 76% 29.71 in 10.0 mi WNW 10.4 mph 23.0 mph N/A   Overcast
7:15 AM 42.8 °F 36.6 °F 35.6 °F 76% 29.75 in 10.0 mi West 11.5 mph 16.1 mph N/A   Overcast
7:35 AM 41.0 °F 33.5 °F 33.8 °F 76% 29.76 in 10.0 mi WNW 13.8 mph 28.8 mph N/A   Overcast
7:55 AM 41.0 °F 34.7 °F 33.8 °F 76% 29.77 in 10.0 mi West 10.4 mph 20.7 mph N/A   Overcast
8:15 AM 41.0 °F 33.9 °F 33.8 °F 76% 29.77 in 10.0 mi NW 12.7 mph 20.7 mph N/A   Overcast
8:35 AM 41.0 °F 33.9 °F 33.8 °F 76% 29.79 in 10.0 mi WNW 12.7 mph 20.7 mph N/A   Overcast
8:55 AM 41.0 °F 33.9 °F 32.0 °F 70% 29.80 in 10.0 mi West 12.7 mph 20.7 mph N/A   Overcast
9:15 AM 41.0 °F 33.1 °F 32.0 °F 70% 29.80 in 10.0 mi WNW 15.0 mph 24.2 mph N/A   Overcast
9:35 AM 41.0 °F 32.2 °F 32.0 °F 70% 29.82 in 10.0 mi West 18.4 mph 24.2 mph N/A   Overcast
9:55 AM 41.0 °F 32.8 °F 32.0 °F 70% 29.84 in 10.0 mi NW 16.1 mph 24.2 mph N/A   Overcast
10:15 AM 41.0 °F 34.3 °F 32.0 °F 70% 29.85 in 10.0 mi West 11.5 mph 23.0 mph N/A   Overcast
10:35 AM 41.0 °F 33.5 °F 32.0 °F 70% 29.86 in 10.0 mi WNW 13.8 mph 23.0 mph N/A   Overcast
10:55 AM 41.0 °F 33.9 °F 32.0 °F 70% 29.88 in 10.0 mi WNW 12.7 mph 18.4 mph N/A   Overcast
11:15 AM 41.0 °F 34.7 °F 32.0 °F 70% 29.89 in 10.0 mi WNW 10.4 mph 21.9 mph N/A   Overcast
11:35 AM 41.0 °F 32.2 °F 32.0 °F 70% 29.90 in 10.0 mi WNW 18.4 mph 29.9 mph N/A   Overcast
11:55 AM 41.0 °F 33.1 °F 32.0 °F 70% 29.91 in 10.0 mi WNW 15.0 mph 23.0 mph N/A   Overcast
12:15 PM 41.0 °F 31.9 °F 32.0 °F 70% 29.93 in 10.0 mi NW 19.6 mph 27.6 mph N/A   Overcast
12:35 PM 41.0 °F 32.8 °F 32.0 °F 70% 29.93 in 10.0 mi WNW 16.1 mph 32.2 mph N/A   Overcast
12:55 PM 41.0 °F 33.1 °F 30.2 °F 65% 29.93 in 10.0 mi NW 15.0 mph 24.2 mph N/A   Overcast
1:15 PM 41.0 °F 33.9 °F 32.0 °F 70% 29.94 in 10.0 mi WNW 12.7 mph 29.9 mph N/A   Overcast
1:35 PM 42.8 °F 36.2 °F 32.0 °F 66% 29.94 in 10.0 mi WNW 12.7 mph 20.7 mph N/A   Mostly Cloudy
1:55 PM 42.8 °F 37.0 °F 32.0 °F 66% 29.94 in 10.0 mi WNW 10.4 mph 18.4 mph N/A   Mostly Cloudy
2:15 PM 42.8 °F 34.5 °F 32.0 °F 66% 29.94 in 10.0 mi West 18.4 mph 25.3 mph N/A   Mostly Cloudy
2:35 PM 42.8 °F 34.8 °F 30.2 °F 61% 29.95 in 10.0 mi WNW 17.3 mph 25.3 mph N/A   Mostly Cloudy
2:55 PM 42.8 °F 35.8 °F 32.0 °F 66% 29.95 in 10.0 mi NW 13.8 mph 18.4 mph N/A   Overcast
3:15 PM 44.6 °F 39.2 °F 32.0 °F 61% 29.96 in 10.0 mi WNW 10.4 mph 20.7 mph N/A   Mostly Cloudy
3:35 PM 44.6 °F 38.4 °F 30.2 °F 57% 29.96 in 10.0 mi WNW 12.7 mph 28.8 mph N/A   Scattered Clouds
3:55 PM 44.6 °F 38.4 °F 30.2 °F 57% 29.97 in 10.0 mi West 12.7 mph 27.6 mph N/A   Scattered Clouds
4:15 PM 42.8 °F 35.4 °F 30.2 °F 61% 29.98 in 10.0 mi West 15.0 mph 25.3 mph N/A   Scattered Clouds
4:35 PM 42.8 °F 35.8 °F 30.2 °F 61% 29.98 in 10.0 mi WNW 13.8 mph 18.4 mph N/A   Scattered Clouds
4:55 PM 42.8 °F 37.5 °F 30.2 °F 61% 29.99 in 10.0 mi West 9.2 mph 19.6 mph N/A   Clear
5:15 PM 42.8 °F 37.0 °F 28.4 °F 57% 30.00 in 10.0 mi West 10.4 mph 16.1 mph N/A   Scattered Clouds
5:35 PM 42.8 °F 37.5 °F 28.4 °F 57% 30.01 in 10.0 mi West 9.2 mph 18.4 mph N/A   Clear
6:15 PM 41.0 °F 37.1 °F 30.2 °F 65% 30.03 in 10.0 mi WNW 5.8 mph - N/A   Clear
6:35 PM 41.0 °F 35.8 °F 30.2 °F 65% 30.04 in 10.0 mi WNW 8.1 mph - N/A   Clear
6:55 PM 39.2 °F 35.9 °F 30.2 °F 70% 30.05 in 10.0 mi WNW 4.6 mph - N/A   Clear
7:15 PM 37.4 °F - 28.4 °F 70% 30.06 in 10.0 mi Calm Calm - N/A   Clear
7:35 PM 37.4 °F - 28.4 °F 70% 30.07 in 10.0 mi Calm Calm - N/A   Clear
7:55 PM 37.4 °F - 30.2 °F 75% 30.07 in 10.0 mi Calm Calm - N/A   Clear
8:15 PM 37.4 °F - 28.4 °F 70% 30.07 in 10.0 mi Calm Calm - N/A   Clear
8:35 PM 35.6 °F 32.8 °F 28.4 °F 75% 30.08 in 10.0 mi SW 3.5 mph - N/A   Clear
8:55 PM 35.6 °F 31.7 °F 30.2 °F 81% 30.09 in 10.0 mi SSW 4.6 mph - N/A   Clear
9:15 PM 33.8 °F - 30.2 °F 87% 30.09 in 10.0 mi Calm Calm - N/A   Clear
9:35 PM 33.8 °F - 32.0 °F 93% 30.09 in 10.0 mi Calm Calm - N/A   Clear
9:55 PM 32.0 °F - 32.0 °F 100% 30.10 in 10.0 mi Calm Calm - N/A   Clear
10:15 PM 32.0 °F - 30.2 °F 93% 30.10 in 10.0 mi Calm Calm - N/A   Clear
10:35 PM 32.0 °F - 30.2 °F 93% 30.10 in 10.0 mi Calm Calm - N/A   Clear
10:55 PM 32.0 °F - 30.2 °F 93% 30.10 in 10.0 mi Calm Calm - N/A   Clear
11:15 PM 32.0 °F - 30.2 °F 93% 30.10 in 10.0 mi Calm Calm - N/A   Clear
11:35 PM 32.0 °F - 30.2 °F 93% 30.11 in 10.0 mi Calm Calm - N/A   Clear
11:55 PM 32.0 °F - 32.0 °F 100% 30.11 in 10.0 mi Calm Calm - N/A   Clear